This is the latest recevied weather packets stored in our database for station/object AB4KN. If no packets are shown the sender has not sent any weather packets the latest 10 day(s).
| Time | Temp. | Humidity | Pressure | Rain* | Wind** | Luminosity | Snow |
|---|---|---|---|---|---|---|---|
| 1778076033 | 21.11° C | 77% | 1021 hPa | 0 mm | - | 95 W/m² | - |
| 1778075729 | 21.11° C | 79% | 1020.6 hPa | 0 mm | - | 80 W/m² | - |
| 1778075425 | 20.56° C | 80% | 1020.7 hPa | 0 mm | - | 76 W/m² | - |
| 1778075122 | 20.56° C | 81% | 1020.7 hPa | 0 mm | - | 80 W/m² | - |
| 1778074818 | 20° C | 81% | 1020.4 hPa | 0 mm | - | 56 W/m² | - |
| 1778074515 | 20° C | 82% | 1020.2 hPa | 0 mm | - | 49 W/m² | - |
| 1778074212 | 20° C | 82% | 1020.4 hPa | 0 mm | - | 45 W/m² | - |
| 1778073909 | 20° C | 83% | 1020.3 hPa | 0 mm | - | 44 W/m² | - |
| 1778073607 | 20° C | 83% | 1020.5 hPa | 0 mm | - | 52 W/m² | - |
| 1778073304 | 20° C | 83% | 1020.5 hPa | 0 mm | - | 48 W/m² | - |
| 1778073000 | 20° C | 83% | 1020.4 hPa | 0 mm | - | 40 W/m² | - |
| 1778072697 | 19.44° C | 83% | 1020.4 hPa | 0 mm | - | 53 W/m² | - |
| 1778072394 | 19.44° C | 84% | 1019.9 hPa | 0 mm | - | 68 W/m² | - |
| 1778072093 | 19.44° C | 84% | 1020.3 hPa | 0 mm | - | 52 W/m² | - |
| 1778071790 | 18.89° C | 84% | 1020.7 hPa | 0 mm | - | 42 W/m² | - |
| 1778071488 | 18.89° C | 85% | 1020.5 hPa | 0 mm | - | 39 W/m² | - |
| 1778071185 | 18.89° C | 85% | 1020.5 hPa | 0 mm | - | 30 W/m² | - |
| 1778070883 | 18.89° C | 85% | 1020.3 hPa | 0 mm | - | 20 W/m² | - |
| 1778070580 | 18.89° C | 85% | 1020.3 hPa | 0 mm | - | 15 W/m² | - |
| 1778070277 | 18.89° C | 85% | 1020.2 hPa | 0 mm | - | 14 W/m² | - |
| 1778069976 | 18.89° C | 85% | 1020.4 hPa | 0 mm | - | 14 W/m² | - |
| 1778069672 | 18.33° C | 85% | 1020.1 hPa | 0 mm | - | 13 W/m² | - |
| 1778069369 | 18.33° C | 85% | 1020.2 hPa | 0 mm | - | 13 W/m² | - |
| 1778069067 | 18.33° C | 85% | 1020 hPa | 0 mm | - | 19 W/m² | - |
| 1778068764 | 18.33° C | 85% | 1019.8 hPa | 0 mm | - | 20 W/m² | - |
* Rain latest hour (hover to see other rain measurements)
** Current wind speed in m/s (hover to see current wind gust speed)